This demonstration page uses our WeatherBlox Daily Observations layout. Learn more.

Left ArrowRight Arrow

39.01783, -85.05884

Hourly Observations for April 22, 2019

Temp ( °F °C ) Dew Point ( °F °C ) Humidity (%) Winds ( mph kmh ) Pressure ( in mb ) Visibility ( mi km ) Precip ( " mm )
12:52 am 00:52 Clear 54 12.2 45 7.2 72 72 SE 8 13 30.15 1021 10 16 N/A
1:52 am 01:52 Clear 52 11.1 44 6.7 75 75 SSE 6 9 30.16 1021 10 16 N/A
2:52 am 02:52 Clear 52 11.1 44 6.7 75 75 ESE 5 7 30.15 1021 10 16 N/A
3:52 am 03:52 Clear 50 10 44 6.7 80 80 ESE 5 7 30.16 1021 10 16 N/A
4:52 am 04:52 Clear 49 9.4 43 6.1 80 80 ESE 6 9 30.16 1021 10 16 N/A
5:52 am 05:52 Clear 49 9.4 43 6.1 80 80 SE 8 13 30.16 1021 10 16 N/A
6:52 am 06:52 Mostly Sunny 48 8.9 43 6.1 83 83 ESE 6 9 30.18 1022 10 16 N/A
7:52 am 07:52 Mostly Sunny 50 10 44 6.7 80 80 SE 7 11 30.20 1023 10 16 N/A
8:52 am 08:52 Partly Cloudy 54 12.2 45 7.2 72 72 SSE 6 9 30.22 1024 10 16 N/A
9:52 am 09:52 Partly Cloudy 59 15 46 7.8 62 62 SE 10 17 30.22 1023 10 16 N/A
10:52 am 10:52 Mostly Cloudy 63 17.2 47 8.3 56 56 S 7 11 30.22 1023 10 16 N/A
11:52 am 11:52 Partly Cloudy 66 18.9 47 8.3 50 50 SSE 7 11 30.20 1023 10 16 N/A
12:52 pm 12:52 Mostly Sunny 69 20.6 47 8.3 45 45 VRB 3 6 30.19 1022 10 16 N/A
2:52 pm 14:52 Mostly Cloudy 73 22.8 43 6.1 34 34 ESE 12 19 30.14 1021 10 16 N/A
3:52 pm 15:52 Mostly Cloudy 73 22.8 45 7.2 37 37 S 8 13 30.12 1020 10 16 N/A
4:52 pm 16:52 Mostly Cloudy 74 23.3 48 8.9 40 40 S 9 15 30.10 1019 10 16 N/A
5:52 pm 17:52 Mostly Cloudy 74 23.3 48 8.9 40 40 SSE 10 17 30.09 1019 10 16 N/A
6:52 pm 18:52 Mostly Cloudy 72 22.2 49 9.4 44 44 S 10 17 30.08 1019 10 16 N/A
7:52 pm 19:52 Mostly Cloudy 69 20.6 48 8.9 47 47 SSE 14 22 30.06 1018 10 16 N/A
8:52 pm 20:52 Partly Cloudy 66 18.9 46 7.8 49 49 SSE 10 17 30.05 1018 10 16 N/A
9:52 pm 21:52 Mostly Clear 63 17.2 46 7.8 54 54 SSE 9 15 30.05 1018 10 16 N/A
10:52 pm 22:52 Mostly Clear 62 16.7 44 6.7 52 52 S 6 9 30.05 1018 10 16 N/A
11:52 pm 23:52 Mostly Clear 59 15 44 6.7 58 58 S 7 11 30.03 1017 10 16 N/A

Powered by AerisWeather